Hourly Data Report for January 12, 2022

BANCROFT AUTO
ONTARIO
Current Station Operator: ECCC - MSC

45°04'17.000" N
77°52'44.000" W
330.70 m
616I001
71294
WRK

Download Data

Hourly Data (January 2022)
Hourly Data Report for January 12, 2022
TIME
LST
Temp Definition
°C
Dew Point Definition
°C
Rel Hum Definition
%
Precip. Amount Definition
mm

Wind Dir Definition
10's deg

Wind Spd Definition
km/h
Visibility Definition
km
Stn Press Definition
kPa
Hmdx Definition


Wind Chill Definition


Weather Definition


00:00 -11.9 -14.1 83 0.0 18 9   97.37   -17 LegendNANA
01:00 -10.7 -13.2 82 0.0 18 7   97.18   -15 LegendNANA
02:00 -9.3 -12.3 79 0.0 19 9   97.04   -14 LegendNANA
03:00 -8.6 -11.7 79 0.0 18 8   96.95   -13 LegendNANA
04:00 -7.8 -10.5 81 0.0 19 6   96.84   -11 LegendNANA
05:00 -6.8 -9.3 82 0.0 18 7   96.76   -10 LegendNANA
06:00 -5.4 -8.1 81 0.0 19 9   96.75   -9 LegendNANA
07:00 -3.9 -7.0 79 0.0 22 8   96.77   -7 LegendNANA
08:00 -3.7 -5.2 89 0.1 21 8   96.76   -7 LegendNANA
09:00 -3.3 -5.3 86 0.0 21 6   96.83   -6 LegendNANA
10:00 -2.9 -4.8 87 0.1 22 7   96.90   -6 LegendNANA
11:00 -2.2 -3.6 90 0.1 24 4   96.96   -4 LegendNANA
12:00 -1.8 -6.2 72 0.0 28 12   96.97   -6 LegendNANA
13:00 -1.8 -7.1 68 0.0 29 8   96.99   -5 LegendNANA
14:00 -2.0 -6.8 70 0.0 28 4   97.04   -3 LegendNANA
15:00 -2.3 -5.6 78 0.0 25 1   97.11   -3 LegendNANA
16:00 -2.8 -4.9 85 0.0 28 6   97.19   -5 LegendNANA
17:00 -3.1 -4.1 93 0.1 27 1   97.27   -4 LegendNANA
18:00 -3.1 -3.6 96 0.2 0 1   97.35   -4 LegendNANA
19:00 -3.4 -4.6 91 0.2 32 5   97.43   -5 LegendNANA
20:00 -3.8 -4.9 92 0.0 35 5   97.50   -6 LegendNANA
21:00 -4.2 -5.2 93 0.0 36 2   97.51   -5 LegendNANA
22:00 -5.4 -6.6 91 0.1 4 3   97.52   -7 LegendNANA
23:00 -6.4 -8.0 89 0.1 2 4   97.50   -8 LegendNANA

Notes on Data Quality.

Legend

  • E = Estimated
  • M = Missing
  • NA = Not Available*
  • [empty] = Indicates an unobserved value
Date modified: